DMSP F-11

operational
NORAD ID: 21798 Int'l Des: 1991-082 Owner: AFSSD2 Country: US
LEOCIRCULARRETROGRADESSO

Über DMSP F-11

Beschreibung wird geladen...

Live-Position

3D-Globus wird geladen...

Nächste Überflüge

Höhenverlauf

Altitude vs Time

uPlot chart will show altitude changes over time

Zweizeiliger Elementsatz

1 21798U 91082A 26061.61513735 .00000159 00000-0 99917-4 0 9997
2 21798 98.7033 92.1421 0012079 212.6147 147.4283 14.17421216770035
Epoch: 2. März 2026 • Age: 29 hours

Aktueller Status

Höhe 837.1 km
Geschwindigkeit 7.44 km/s
Subsatellitenpunkt -31.29°S, 26.75°E
Startdatum 28. Nov. 1991
Alter 34.2 years
Typ other

Technische Details

Klassifizierung Payload
Masse 749.00 kg
Trockenmasse 749.00 kg
Gesamtmasse 1456.00 kg
Länge 3.40 m
Durchmesser 1.20 m
Spannweite 5.00 m
Form Box + Pan
Hersteller GEEW
Bus-Typ Block 5D
Phasenstatus In Orbit
Besitzer/Staat AFSSD2/US

Große Konstellationen

Loading constellations...